Tracking 19574 objects as of 16-Feb-2019
HD Live streaming from Space Station
objects crossing your sky now

FLOCK 3P 51

Track FLOCK 3P 51 now!
10-day predictions
FLOCK 3P 51 is classified as:


NORAD ID: 41952
Int'l Code: 2017-008E
Perigee: 493.0 km
Apogee: 502.6 km
Inclination: 97.4 °
Period: 94.4 minutes
Semi major axis: 6868 km
RCS: Unknown
Launch date: February 15, 2017
Source: United States (US)
Launch site: SRIHARIKOTA (SRI)
aabbcc
Your satellite tracking list
Your tracking list is empty




NASA's NSSDC Master Catalog

Two Line Element Set (TLE):
1 41952U 17008E   19047.18507623  .00000863  00000-0  37422-4 0  9999
2 41952  97.4217 115.4332 0006958 221.0996 138.9719 15.25035523111281
Source of the keplerian elements: AFSPC